West Brevoort - northern half: Past 24 Hour Conditions

 

Gjoa Haven Airport

04:00 AM MDT 22 September 2014
This table is a summary of hourly weather conditions for the past 24 hours.
Date / Time
(MDT)
Wind(knots) Conditions Visibility(km) Pressure(kPa) Air tempC) Relative humidity(%) Dew pointC) Wind Chill
22 September 2014
4:00 WNW 17 Cloudy 16 101.4 -5 96 -5 -13
3:00 WNW 14 Cloudy 16 101.3 -4 94 -5 -11
2:00 NNW 15 Cloudy 16 101.3 -3 94 -4 -10
1:00 NW 13 Cloudy 16 101.2 -3 96 -3 -9
0:00 NNW 11 Cloudy 16 101.2 -4 97 -4 -10
21 September 2014
23:00 NNW 12 Light Snow 2 101.2 -3 98 -3 -9
22:00 WNW 11 Light Snow 6 101.2 -3 96 -3 -9
21:00 NW 13 gust 20 Cloudy 16 101.1 -3 95 -4 -10
20:00 NW 17 Cloudy 16 101.1 -3 93 -4 -11
19:00 NNW 12 Cloudy 16 101.1 -4 93 -5 -10
18:00 NNW 13 Mostly Cloudy 16 101.1 -4 94 -5 -11
17:00 NNW 15 gust 20 Mostly Cloudy 16 101.0 -4 92 -5 -11
16:00 NNW 14 Mostly Cloudy 16 100.9 -3 88 -5 -10
15:00 NNW 14 gust 20 Mostly Cloudy 11 100.9 -3 92 -4 -10
14:00 NNW 14 gust 19 Mostly Cloudy 16 100.9 -3 85 -5 -10
13:00 NNW 15 Mostly Cloudy 16 100.8 -3 87 -5 -10
12:00 NNW 15 Mostly Cloudy 16 100.8 -3 87 -5 -10
11:00 NNW 18 Cloudy 16 100.8 -3 90 -5 -11
10:00 NNW 17 Mostly Cloudy 16 100.8 -4 93 -5 -11
9:00 NNW 15 gust 21 Mostly Cloudy 16 100.8 -4 95 -5 -12
8:00 NNW 17 gust 22 Mist 10 100.7 -4 98 -4 -12
7:00 NNW 14 gust 19 Cloudy 16 100.7 -4 98 -4 -11
6:00 NW 17 Cloudy 16 100.7 -4 97 -5 -12
5:00 NW 20 Cloudy 16 100.6 -4 96 -5 -13
4:00 NW 16 gust 21 Mostly Cloudy 16 100.6 -5 97 -6 -13
 
Map of Arctic - Eastern Arctic marine weather areas Baker Lake Airport Chesterfield Inlet Airport Coral Harbour Airport Gjoa Haven Airport Kugaaruk Airport Rankin Inlet Airport Shepherd Bay Airport Whale Cove Airport Arctic Bay Brevoort Island Qikiqtarjuaq Airport Cape Dorset Airport Cape Dyer Cape Hooper Clyde Airport Grise Fiord Airport Hall Beach Airport Igloolik Airport Iqaluit Airport Longstaff Bluff Pangnirtung Airport Pond Inlet Airport Repulse Bay Airport Resolute Airport Resolution Island Rowley Island Airport Taloyoak Airport Wager Bay Akulivik Airport Ivujivik Airport Puvirnituq Airport Kangiqsujuaq Airport Kangirsuk Airport Quaqtaq Airport Tasiujaq Airport Cape Kakkiviak Cape Kiglapait Nain Airport Saglek Cape Mercy Kimmirut Airport Aupaluk Airport Salluit Airport Kangiqsualujjuaq Airport Fort Ross
Legend: buoyBuoy land stationLand Station